User: anonymous   Login
Location: Unspecified
(0.0000°N, 0.0000°E)
Time: 14:39:23
(UTC+00:00)
Language:

Vela 1A - Orbit

View from above orbital plane
View from above orbital plane
View from above satellite
View from above satellite

Ground track
Ground track

The orbit data is extracted from the following two-line orbital elements,

1 00692U 63039C   21116.51763191 -.00001442  00000-0  00000-0 0  9994
2 00692  13.9082 314.7795 5440520 262.9486 358.9242  0.22112543  9030
Epoch (UTC): 26 April 2021 12:25:23
Eccentricity: 0.5440520
inclination: 13.9082°
perigee height: 46290 km
apogee height: 171983 km
right ascension of ascending node: 314.7795°
argument of perigee: 262.9486°
revolutions per day: 0.22112543
mean anomaly at epoch: 358.9242°
orbit number at epoch: 903

The dashed part of the orbit path shows where the satellite is in the earth's shadow,  

DLR